CUBERRT (43546 NORAD) Tracking and Keplerian Element Data

This shows tracking and keplerian element data for the satellite.

Feedback or suggestion? Click here.




ElementValue
Catalog43546
NameCUBERRT
Epoch Orbit4903
Epoch Day144.40221867
Epoch Year2019
RAAN107.414
Inclination51.6379
Eccentricity0.0006423
Argument of Perigee42.736
Mean Anonmoly317.4133
Mean Motion15.63464681
Decay Rate0.0001256
L11 43546U 98067NU 19144.40221867 .00012560 00000-0 13868-3 0 9994
L22 43546 51.6379 107.4140 0006423 42.7360 317.4133 15.63464681 49031

Live tracking and technical data element details for CUBERRT (NORAD 43546). CUBERRT can be tracked NOW for your location showing map with azimuth and elevation plus other details from your city location.

Track the satellite on the map from your city or location and see movement details for azimuth, elevation, latitude, longitude, range, height, and movement on the map or in text.







IsCatalogInMostPopularTable: catalog: 43546, numindb: 153
Update: records affected: 1



GetName: 43546 CUBERRT

Hit Count: updated at: Fri, 24 May 2019 20:48:27 GMT